sat.trackr.live / text

‹ back to catalog

STARLINK-1433

NORAD 45711 · 2020-035BG

PAYLOAD ACTIVE UNKNOWN

§ Identity

Operator
Country
US
Launch date
2020-06-04
Launch site
AFETR
Launch vehicle
Mass (kg)
RCS (m²)

Purposes: comms

External: N2YO · Heavens-Above · Gunter

§ Orbital elements

Epoch: 2026-05-25T01:52:56.481600Z

Period
91.90 min
Inclination
53.0448°
Eccentricity
0.0007069
Mean motion
15.66958443 rev/d
Perigee alt
362.8 km
Apogee alt
372.4 km
Semi-major
6,745.7 km
B*
4.6037e-4
RAAN
7.8361°
Arg perigee
69.4301°
Mean anomaly
290.7471°
Rev number
33,130

§ Raw data

STARLINK-14331 45711U 20035BG  26145.07843150  .00049618  00000+0  46037-3 0  99942 45711  53.0448   7.8361 0007069  69.4301 290.7471 15.66958443331305

JSON: /api/v1/satellites/45711 · /tle

For live sub-satellite position, see the globe view (requires WebGL).

§ Visibility from observer

Set your observer location to see the next 7 days of passes ≥ 10°. The values pass through the URL so the page stays shareable.

No JS? Fill the form by hand. The geolocation button needs JavaScript.